This is the latest recevied weather packets stored in our database for station/object KE5VT. If no packets are shown the sender has not sent any weather packets the latest 10 day(s).
| Time | Temp. | Humidity | Pressure | Rain* | Wind** | Luminosity | Snow |
|---|---|---|---|---|---|---|---|
| 1787842313 | 23.89° C | 99% | 1013 hPa | 0 mm | - | 97 W/m² | - |
| 1787842013 | 23.89° C | 99% | 1013 hPa | 0 mm | - | 149 W/m² | - |
| 1787841709 | 23.33° C | 99% | 1013.1 hPa | 0 mm | - | 103 W/m² | - |
| 1787841408 | 23.33° C | 99% | 1012.9 hPa | 0 mm | - | 187 W/m² | - |
| 1787841102 | 23.33° C | 99% | 1012.9 hPa | 0 mm | - | 116 W/m² | - |
| 1787840798 | 23.33° C | 99% | 1013 hPa | 0 mm | - | 83 W/m² | - |
| 1787840493 | 23.33° C | 99% | 1012.9 hPa | 0 mm | - | 111 W/m² | - |
| 1787840188 | 23.33° C | 99% | 1012.9 hPa | 0 mm | - | 109 W/m² | - |
| 1787839888 | 22.78° C | 99% | 1012.9 hPa | 0 mm | - | 110 W/m² | - |
| 1787839584 | 22.78° C | 99% | 1012.9 hPa | 0 mm | - | 124 W/m² | - |
| 1787839278 | 23.33° C | 99% | 1012.8 hPa | 0 mm | - | 87 W/m² | - |
| 1787838978 | 23.33° C | 99% | 1012.8 hPa | 0 mm | - | 146 W/m² | - |
| 1787838677 | 23.33° C | 99% | 1012.7 hPa | 0 mm | - | 138 W/m² | - |
| 1787838376 | 23.33° C | 99% | 1012.8 hPa | 0 mm | - | 58 W/m² | - |
| 1787838075 | 23.33° C | 99% | 1012.8 hPa | 0 mm | - | 43 W/m² | - |
| 1787837775 | 23.33° C | 99% | 1012.7 hPa | 0 mm | - | 42 W/m² | - |
| 1787837470 | 22.78° C | 99% | 1012.7 hPa | 0 mm | - | 51 W/m² | - |
| 1787837165 | 23.33° C | 99% | 1012.8 hPa | 0 mm | - | 59 W/m² | - |
| 1787836864 | 22.78° C | 99% | 1012.7 hPa | 0 mm | - | 67 W/m² | - |
| 1787836560 | 22.78° C | 99% | 1012.8 hPa | 0 mm | - | 53 W/m² | - |
| 1787836259 | 23.33° C | 99% | 1012.6 hPa | 0 mm | - | 40 W/m² | - |
| 1787835955 | 23.33° C | 99% | 1012.5 hPa | 0 mm | - | 64 W/m² | - |
| 1787835650 | 23.33° C | 99% | 1012.5 hPa | 0 mm | - | 107 W/m² | - |
| 1787835349 | 22.78° C | 99% | 1012.7 hPa | 0 mm | - | 85 W/m² | - |
| 1787835045 | 22.78° C | 99% | 1012.8 hPa | 0 mm | - | 56 W/m² | - |
* Rain latest hour (hover to see other rain measurements)
** Current wind speed in m/s (hover to see current wind gust speed)